Location: Tel Aviv
(32.0670°N, 34.7670°E)
Time: 14:19:58
(UTC+03:00)

Explorer 11/Cluster Stage 4 - Pass Details

Date: 17 September 2024
Orbit: 464 x 1208 km, 28.8° (Epoch: 06 October)

Event Time Altitude Azimuth Distance (km) Brightness Sun altitude
Rises 13:14:54 0° 264° (W) 4,101 10.4 58.5°
Reaches altitude 10° 13:19:47 10° 239° (WSW) 3,133 10.2 58.1°
Maximum altitude 13:23:01 13° 214° (SW) 2,880 10.2 57.9°
Drops below altitude 10° 13:26:11 10° 190° (S) 3,048 10.3 57.6°
Sets 13:30:48 0° 164° (SSE) 3,889 10.5 57.2°
